STARLINK-36663

Last updated on Wed Mar 25 2026 00:02:05 GMT+0000 (Coordinated Universal Time)

1 67919U 26036R 26083.50002314 -.02186104 00000+0 -74259-1 0 9994 2 67919 42.9979 161.5810 0001235 270.8832 229.6243 15.33275820 6029
UTC large
Height (km)
Speed (km/s)
/
Latitude / Longitude
Inclination (degrees)
Orbital Period (minutes)
Azimuth
Elevation
Range (km)
Doppler Factor

Next 0 passes for location: London (51.5072 / 0.1276)

Sorry there are no passes over London.